Location: Unspecified
(44.0704°N, 88.6889°W)
Time: 21:35:16
(UTC+02:00)

Altair - Pass Details

Date: 19 June 2019
Orbit: 1501 x 1683 km, 47.2° (Epoch: 19 August)

Event Time Altitude Azimuth Distance (km) Brightness Sun altitude
Rises 12:18:16 0° 292° (WNW) 4,907 9.8 0.2°
Reaches altitude 10° 12:22:10 10° 280° (W) 3,932 9.2 0.8°
Maximum altitude 12:29:39 24° 232° (SW) 2,960 8.5 1.9°
Drops below altitude 10° 12:37:10 10° 183° (S) 3,928 9.3 3.1°
Sets 12:41:07 0° 170° (S) 4,900 9.9 3.7°
